• In Hungary
  • List of Countries
  • For 7 days
  • Water Temperature
  • Satellite Maps
  • Weather Map
  • News
  • Weather Widgets
  • user-avatar
    Login

    Hourly Weather Yazlav

    Today, 16 July, Monday

    Time Temperature Precipitation Wind Pressure Humidity
    00:00 +20°C° 0 mm 4 mps 738 mmHg 89%
    01:00 +19°C° 0 mm 4 mps 738 mmHg 90%
    02:00 +19°C° 0 mm 4 mps 738 mmHg 90%
    03:00 +19°C° 0 mm 4 mps 738 mmHg 91%
    04:00 +18°C° 0 mm 4 mps 738 mmHg 91%
    05:00 +19°C° 0 mm 4 mps 739 mmHg 88%
    06:00 +20°C° 0 mm 5 mps 739 mmHg 85%
    07:00 +21°C° 0 mm 5 mps 739 mmHg 82%
    08:00 +22°C° 0 mm 5 mps 739 mmHg 76%
    09:00 +25°C° 0 mm 5 mps 740 mmHg 70%
    10:00 +26°C° 0 mm 5 mps 740 mmHg 63%
    11:00 +27°C° 0 mm 5 mps 740 mmHg 61%
    12:00 +28°C° 0 mm 5 mps 739 mmHg 58%
    13:00 +28°C° 0 mm 5 mps 739 mmHg 56%
    14:00 +28°C° 0 mm 5 mps 739 mmHg 56%
    15:00 +28°C° 0 mm 5 mps 739 mmHg 56%
    16:00 +29°C° 0 mm 5 mps 739 mmHg 57%
    17:00 +28°C° 0 mm 5 mps 739 mmHg 62%
    18:00 +27°C° 0 mm 4 mps 739 mmHg 67%
    19:00 +26°C° 0 mm 4 mps 739 mmHg 72%
    20:00 +25°C° 0 mm 4 mps 739 mmHg 73%
    21:00 +23°C° 0 mm 4 mps 739 mmHg 75%
    22:00 +21°C° 0 mm 5 mps 739 mmHg 77%
    23:00 +21°C° 0 mm 5 mps 739 mmHg 75%

    Tomorrow, 17 July, Tuesday

    Time Temperature Precipitation Wind Pressure Humidity
    00:00 +21°C° 0 mm 5 mps 739 mmHg 73%
    01:00 +21°C° 0 mm 6 mps 739 mmHg 71%
    02:00 +21°C° 0.1 mm 5 mps 739 mmHg 71%
    03:00 +21°C° 0.1 mm 5 mps 739 mmHg 71%
    04:00 +20°C° 0.1 mm 5 mps 739 mmHg 71%
    05:00 +20°C° 0.2 mm 6 mps 739 mmHg 73%
    06:00 +20°C° 0.2 mm 6 mps 739 mmHg 75%
    07:00 +20°C° 0.2 mm 6 mps 739 mmHg 76%
    08:00 +22°C° 0 mm 7 mps 739 mmHg 73%
    09:00 +24°C° 0 mm 7 mps 739 mmHg 69%
    10:00 +26°C° 0 mm 7 mps 739 mmHg 65%
    11:00 +27°C° 0 mm 8 mps 739 mmHg 63%
    12:00 +28°C° 0 mm 8 mps 738 mmHg 61%
    13:00 +29°C° 0 mm 8 mps 738 mmHg 59%
    14:00 +29°C° 0 mm 7 mps 738 mmHg 60%
    15:00 +29°C° 0 mm 7 mps 738 mmHg 60%
    16:00 +29°C° 0 mm 6 mps 737 mmHg 61%
    17:00 +29°C° 0 mm 6 mps 737 mmHg 63%
    18:00 +28°C° 0 mm 6 mps 737 mmHg 65%
    19:00 +27°C° 0 mm 6 mps 737 mmHg 67%
    20:00 +26°C° 1 mm 5 mps 737 mmHg 71%
    21:00 +25°C° 1 mm 4 mps 737 mmHg 75%
    22:00 +24°C° 1 mm 3 mps 737 mmHg 79%
    23:00 +22°C° 1.4 mm 4 mps 737 mmHg 80%

    Day after tomorrow, 18 July, Wednesday

    Time Temperature Precipitation Wind Pressure Humidity
    00:00 +22°C° 1.4 mm 5 mps 737 mmHg 80%
    01:00 +21°C° 1.4 mm 6 mps 737 mmHg 81%
    02:00 +21°C° 0.5 mm 6 mps 737 mmHg 81%
    03:00 +20°C° 0.5 mm 5 mps 737 mmHg 82%
    04:00 +20°C° 0.5 mm 5 mps 737 mmHg 82%
    05:00 +21°C° 0.2 mm 5 mps 737 mmHg 83%
    06:00 +21°C° 0.2 mm 5 mps 737 mmHg 83%
    07:00 +21°C° 0.2 mm 5 mps 737 mmHg 83%
    08:00 +23°C° 0.1 mm 5 mps 737 mmHg 77%
    09:00 +25°C° 0.1 mm 5 mps 738 mmHg 72%
    10:00 +27°C° 0.1 mm 5 mps 738 mmHg 66%
    11:00 +28°C° 0.1 mm 4 mps 738 mmHg 63%
    12:00 +29°C° 0.1 mm 4 mps 738 mmHg 59%
    13:00 +32°C° 0.1 mm 4 mps 738 mmHg 56%
    14:00 +30°C° 0.4 mm 4 mps 738 mmHg 58%
    15:00 +30°C° 0.4 mm 3 mps 738 mmHg 59%
    16:00 +30°C° 0.4 mm 3 mps 738 mmHg 61%
    17:00 +30°C° 0.2 mm 2 mps 738 mmHg 64%
    18:00 +29°C° 0.2 mm 2 mps 738 mmHg 67%
    19:00 +29°C° 0.2 mm 2 mps 738 mmHg 70%
    20:00 +27°C° 0.2 mm 2 mps 738 mmHg 71%
    21:00 +26°C° 0.2 mm 2 mps 738 mmHg 71%
    22:00 +25°C° 0.2 mm 3 mps 738 mmHg 71%
    23:00 +24°C° 0.2 mm 3 mps 739 mmHg 71%

    19 July, Thursday

    Time Temperature Precipitation Wind Pressure Humidity
    00:00 +23°C° 0.2 mm 2 mps 739 mmHg 71%
    01:00 +23°C° 0.2 mm 2 mps 739 mmHg 71%
    02:00 +21°C° 0 mm 2 mps 739 mmHg 71%
    03:00 +20°C° 0 mm 2 mps 739 mmHg 72%
    04:00 +19°C° 0 mm 2 mps 739 mmHg 72%
    05:00 +20°C° 0 mm 2 mps 739 mmHg 71%
    06:00 +21°C° 0 mm 2 mps 739 mmHg 70%
    07:00 +23°C° 0 mm 2 mps 739 mmHg 70%
    08:00 +25°C° 0.1 mm 2 mps 739 mmHg 66%
    09:00 +26°C° 0.1 mm 2 mps 739 mmHg 63%
    10:00 +28°C° 0.1 mm 2 mps 739 mmHg 59%
    11:00 +29°C° 0 mm 2 mps 739 mmHg 57%
    12:00 +30°C° 0 mm 2 mps 739 mmHg 55%
    13:00 +31°C° 0 mm 2 mps 739 mmHg 52%
    14:00 +31°C° 0.1 mm 2 mps 739 mmHg 52%
    15:00 +31°C° 0.1 mm 1 mps 739 mmHg 52%
    16:00 +31°C° 0.1 mm 1 mps 739 mmHg 51%
    17:00 +30°C° 0.3 mm 2 mps 739 mmHg 57%
    18:00 +29°C° 0.3 mm 2 mps 739 mmHg 64%
    19:00 +28°C° 0.3 mm 2 mps 739 mmHg 70%
    20:00 +26°C° 0 mm 3 mps 739 mmHg 73%
    21:00 +25°C° 0 mm 3 mps 739 mmHg 76%
    22:00 +22°C° 0 mm 3 mps 739 mmHg 80%
    23:00 +23°C° 0.1 mm 2 mps 739 mmHg 81%

    20 July, Friday

    Time Temperature Precipitation Wind Pressure Humidity
    00:00 +21°C° 0.1 mm 2 mps 739 mmHg 82%
    01:00 +20°C° 0.1 mm 2 mps 739 mmHg 83%
    02:00 +20°C° 0 mm 2 mps 739 mmHg 84%
    03:00 +19°C° 0 mm 2 mps 739 mmHg 84%
    04:00 +19°C° 0 mm 2 mps 739 mmHg 85%
    05:00 +20°C° 0 mm 2 mps 739 mmHg 82%
    06:00 +21°C° 0 mm 3 mps 739 mmHg 78%
    07:00 +21°C° 0 mm 3 mps 739 mmHg 75%
    08:00 +24°C° 0 mm 3 mps 739 mmHg 69%
    09:00 +26°C° 0 mm 3 mps 739 mmHg 63%
    10:00 +27°C° 0 mm 3 mps 739 mmHg 58%
    11:00 +28°C° 0 mm 3 mps 739 mmHg 55%
    12:00 +29°C° 0 mm 3 mps 739 mmHg 52%
    13:00 +30°C° 0 mm 3 mps 738 mmHg 49%
    14:00 +30°C° 0 mm 3 mps 738 mmHg 50%
    15:00 +30°C° 0 mm 3 mps 738 mmHg 50%
    16:00 +31°C° 0 mm 3 mps 738 mmHg 50%
    17:00 +30°C° 0 mm 3 mps 738 mmHg 56%
    18:00 +29°C° 0 mm 3 mps 738 mmHg 62%
    19:00 +28°C° 0 mm 2 mps 738 mmHg 68%
    20:00 +26°C° 0 mm 3 mps 738 mmHg 72%
    21:00 +25°C° 0 mm 3 mps 738 mmHg 76%
    22:00 +22°C° 0 mm 3 mps 738 mmHg 79%
    23:00 +21°C° 0 mm 3 mps 737 mmHg 82%

    21 July, Saturday

    Time Temperature Precipitation Wind Pressure Humidity
    00:00 +21°C° 0 mm 3 mps 737 mmHg 84%
    01:00 +20°C° 0 mm 3 mps 737 mmHg 86%
    02:00 +20°C° 0 mm 3 mps 737 mmHg 88%
    03:00 +19°C° 0 mm 3 mps 737 mmHg 89%
    04:00 +19°C° 0 mm 3 mps 737 mmHg 91%
    05:00 +20°C° 0 mm 4 mps 737 mmHg 87%
    06:00 +21°C° 0 mm 4 mps 737 mmHg 84%
    07:00 +22°C° 0 mm 5 mps 737 mmHg 81%
    08:00 +23°C° 0 mm 5 mps 737 mmHg 76%
    09:00 +26°C° 0 mm 5 mps 737 mmHg 70%
    10:00 +27°C° 0 mm 5 mps 737 mmHg 65%
    11:00 +28°C° 0 mm 5 mps 737 mmHg 62%
    12:00 +28°C° 0 mm 5 mps 737 mmHg 59%
    13:00 +29°C° 0 mm 6 mps 737 mmHg 57%
    14:00 +29°C° 0.1 mm 5 mps 737 mmHg 57%
    15:00 +29°C° 0.1 mm 5 mps 737 mmHg 57%
    16:00 +29°C° 0.1 mm 5 mps 737 mmHg 58%
    17:00 +28°C° 0.1 mm 5 mps 737 mmHg 63%
    18:00 +26°C° 0.1 mm 5 mps 738 mmHg 67%
    19:00 +25°C° 0.1 mm 5 mps 738 mmHg 72%
    20:00 +23°C° 0 mm 5 mps 738 mmHg 73%
    21:00 +22°C° 0 mm 5 mps 738 mmHg 73%
    22:00 +21°C° 0 mm 5 mps 738 mmHg 73%
    23:00 +20°C° 0 mm 5 mps 738 mmHg 72%
    Show more